Latest Coastal Weather Observations for Truscott

IDW60701

Issued at 8:12 am WST Saturday 2 July 2016 (issued every 10 minutes, with the page automatically refreshed every 10 minutes)

About coastal observations | Map of coastal stations | Coastal observations for WA | Marine services | Other Formats
Station Details ID: 001020 Name: TRUSCOTT Lat: -14.09 Lon: 126.39 Height: 51.0 m
Data from the previous 72 hours. | See also: Recent months at Truscott
Date/Time
WST
Temp
°C
Wind Pressure Rain since
9am
mm
Weather Cloud Vis
km
Sea
Height
m
Swell
Dir  Spd
kts
Gust
kts
hPa Trend Height
m
Period
s
Dir
02/08:00am 27.1 E 7 6 1017.0 - 0.0 - - 10 - - - -
02/07:30am 25.0 ESE 5 - 1017.0 - 0.0 - - 10 - - - -
02/07:00am 23.7 ESE 5 - 1016.6 - 0.0 - - 10 - - - -
02/06:30am 22.0 ESE 4 - 1016.0 - 0.0 - - 10 - - - -
02/06:00am 21.4 SE 4 - 1015.9 - 0.0 - - 10 - - - -
02/05:30am 21.0 SE 3 - 1015.0 - 0.0 - - 10 - - - -
02/05:00am 21.1 SE 4 - 1015.1 - 0.0 - - 10 - - - -
02/04:30am 22.0 SE 4 - 1015.0 - 0.0 - - 10 - - - -
02/04:00am 21.2 ESE 4 - 1014.7 - 0.0 - - 10 - - - -
02/03:30am 20.0 ESE 3 - 1014.0 - 0.0 - - 10 - - - -
02/03:00am 22.0 ESE 4 - 1014.5 - 0.0 - - 10 - - - -
02/02:30am 21.0 SSE 3 - 1014.0 - 0.0 - - 10 - - - -
02/02:00am 21.8 SSE 4 - 1014.6 - 0.0 - - 10 - - - -
02/01:30am 22.0 SE 4 - 1014.0 - 0.0 - - 9 - - - -
02/01:00am 21.1 SE 4 - 1015.1 - 0.0 - - 10 - - - -
02/12:30am 21.0 SE 3 - 1015.0 - 0.0 - - 10 - - - -
02/12:00am 21.5 ESE 3 - 1015.3 - 0.0 - - 10 - - - -
 
Date/Time
WST
Temp
°C
Wind Pressure Rain since
9am
mm
Weather Cloud Vis
km
Sea
Height
m
Swell
Dir  Spd
kts
Gust
kts
hPa Trend Height
m
Period
s
Dir
01/11:30pm 23.0 ESE 4 - 1015.0 - 0.0 - - 10 - - - -
01/11:00pm 22.7 SE 4 - 1015.4 - 0.0 - - 9 - - - -
01/10:30pm 22.0 ESE 4 - 1015.0 - 0.0 - - 10 - - - -
01/10:00pm 22.8 E 3 - 1015.6 - 0.0 - - 10 - - - -
01/09:30pm 24.0 E 3 - 1015.0 - 0.0 - - 10 - - - -
01/09:00pm 24.3 E 4 - 1015.5 - 0.0 - - 10 - - - -
01/08:30pm 24.0 ENE 4 - 1015.0 - 0.0 - - 10 - - - -
01/08:00pm 24.6 ENE 4 - 1014.8 - 0.0 - - 10 - - - -
01/07:30pm 25.0 ENE 4 - 1014.0 - 0.0 - - 10 - - - -
01/07:00pm 26.1 ENE 4 - 1014.1 - 0.0 - - 10 - - - -
01/06:30pm 27.0 ENE 5 - 1014.0 - 0.0 - - 10 - - - -
01/06:00pm 27.5 NE 4 - 1013.4 - 0.0 - - 10 - - - -
01/05:30pm 28.0 NNE 4 - 1013.0 - 0.0 - - 10 - - - -
01/05:00pm 29.4 NNE 6 - 1012.5 - 0.0 - - 10 - - - -
01/04:30pm 31.0 NE 7 - 1012.0 - 0.0 - - 10 - - - -
01/04:00pm 31.4 NE 8 - 1012.1 - 0.0 - - 10 - - - -
01/03:30pm 32.0 ENE 7 - 1012.0 - 0.0 - - 10 - - - -
01/03:00pm 32.3 NNE 8 - 1011.7 - 0.0 - - 10 - - - -
01/02:30pm 33.0 E 8 - 1012.0 - 0.0 - - 10 - - - -
01/02:00pm 32.8 ENE 8 - 1012.0 - 0.0 - - 10 - - - -
01/01:30pm 33.0 E 9 - 1012.0 - 0.0 - - 10 - - - -
01/01:00pm 32.7 E 9 - 1012.5 - 0.0 - - 10 - - - -
01/12:30pm 32.0 E 9 - 1013.0 - 0.0 - - 10 - - - -
01/12:00pm 32.1 ENE 10 - 1013.4 - 0.0 - - 10 - - - -
01/11:30am 31.0 ENE 12 - 1014.0 - 0.0 - - 10 - - - -
01/11:00am 31.3 E 10 - 1014.5 - 0.0 - - 10 - - - -
01/10:30am 31.0 E 11 - 1015.0 - 0.0 - - 10 - - - -
01/10:00am 30.7 E 10 - 1015.2 - 0.0 - - 8 - - - -
01/09:30am 30.0 E 9 - 1015.0 - 0.0 - - 10 - - - -
01/09:00am 29.1 E 9 - 1015.5 - 0.0 - - 10 - - - -
01/08:30am 28.0 E 8 - 1015.0 - 0.0 - - 10 - - - -
01/08:00am 26.3 ESE 7 - 1015.5 - 0.0 - - 10 - - - -
01/07:30am 25.0 ESE 6 - 1015.0 - 0.0 - - 10 - - - -
01/07:00am 21.9 ESE 3 - 1015.1 - 0.0 - - 10 - - - -
01/06:30am 19.0 ESE 3 - 1015.0 - 0.0 - - 10 - - - -
01/06:00am 18.4 SE 4 - 1014.6 - 0.0 - - 10 - - - -
01/05:30am 18.0 SSE 3 - 1014.0 - 0.0 - - 10 - - - -
01/05:00am 18.9 SE 4 - 1014.3 - 0.0 - - 10 - - - -
01/04:30am 19.0 S 3 - 1014.0 - 0.0 - - 10 - - - -
01/04:00am 19.1 SSE 3 - 1014.4 - 0.0 - - 10 - - - -
01/03:30am 20.0 SSE 4 - 1014.0 - 0.0 - - 10 - - - -
01/03:00am 20.2 S 4 - 1014.1 - 0.0 - - 10 - - - -
01/02:30am 21.0 SSE 3 - 1014.0 - 0.0 - - 10 - - - -
01/02:00am 21.1 SSE 4 - 1014.4 - 0.0 - - 10 - - - -
01/01:30am 22.0 SE 4 - 1014.0 - 0.0 - - 10 - - - -
01/01:00am 21.2 SE 4 - 1014.9 - 0.0 - - 10 - - - -
01/12:30am 21.0 SE 3 - 1015.0 - 0.0 - - 10 - - - -
01/12:00am 22.1 SE 4 - 1015.3 - 0.0 - - 10 - - - -
 
Date/Time
WST
Temp
°C
Wind Pressure Rain since
9am
mm
Weather Cloud Vis
km
Sea
Height
m
Swell
Dir  Spd
kts
Gust
kts
hPa Trend Height
m
Period
s
Dir
30/11:30pm 23.0 SE 5 - 1015.0 - 0.0 - - 9 - - - -
30/11:00pm 22.3 ESE 4 - 1015.6 - 0.0 - - 10 - - - -
30/10:30pm 22.0 ESE 4 - 1015.0 - 0.0 - - 10 - - - -
30/10:00pm 21.9 E 4 - 1015.5 - 0.0 - - 10 - - - -
30/09:30pm 23.0 E 3 - 1015.0 - 0.0 - - 10 - - - -
30/09:00pm 24.4 E 4 - 1015.3 - 0.0 - - 10 - - - -
30/08:30pm 25.0 ENE 4 - 1015.0 - 0.0 - - 10 - - - -
30/08:00pm 25.4 ENE 5 - 1014.8 - 0.0 - - 7 - - - -
30/07:30pm 25.0 ENE 4 - 1014.0 - 0.0 - - 10 - - - -
30/07:00pm 26.0 NE 5 - 1014.0 - 0.0 - - 10 - - - -
30/06:30pm 27.0 NE 5 - 1013.0 - 0.0 - - 9 - - - -
30/06:00pm 27.0 NE 5 - 1013.1 - 0.0 - - 7 - - - -
30/05:30pm 28.0 NNE 4 - 1012.0 - 0.0 - - 10 - - - -
30/05:00pm 29.8 NE 4 - 1012.1 - 0.0 - - 10 - - - -
30/04:30pm 31.0 E 7 - 1012.0 - 0.0 - - 10 - - - -
30/04:00pm 31.3 ENE 7 - 1011.6 - 0.0 - - 10 - - - -
30/03:30pm 31.0 E 8 - 1011.0 - 0.0 - - 10 - - - -
30/03:00pm 31.4 ENE 8 - 1011.7 - 0.0 - - 10 - - - -
30/02:30pm 32.0 E 9 - 1012.0 - 0.0 - - 10 - - - -
30/02:00pm 31.8 E 9 - 1012.0 - 0.0 - - 10 - - - -
30/01:30pm 32.0 E 9 - 1012.0 - 0.0 - - 10 - - - -
30/01:00pm 32.1 ENE 10 - 1012.7 - 0.0 - - 10 - - - -
30/12:30pm 32.0 ESE 10 - 1013.0 - 0.0 - - 10 - - - -
30/12:00pm 31.2 ESE 10 - 1013.8 - 0.0 - - 10 - - - -
30/11:30am 31.0 E 9 - 1014.0 - 0.0 - - 10 - - - -
30/11:00am 30.4 E 9 - 1014.7 - 0.0 - - 10 - - - -
30/10:30am 30.0 E 9 - 1015.0 - 0.0 - - 10 - - - -
30/10:00am 29.3 E 9 - 1015.8 - 0.0 - - 10 - - - -
30/09:30am 29.0 E 8 - 1016.0 - 0.0 - - 10 - - - -
30/09:00am 28.0 ESE 9 - 1016.2 - 0.0 - - 10 - - - -
30/08:30am 27.0 ESE 8 - 1016.0 - 0.0 - - 10 - - - -
30/08:00am 25.5 ESE 8 - 1016.2 - 0.0 - - 10 - - - -
30/07:30am 24.0 ESE 5 - 1016.0 - 0.0 - - 10 - - - -
30/07:00am 22.6 SE 5 - 1015.7 - 0.0 - - 10 - - - -
30/06:30am 22.0 ESE 5 - 1015.0 - 0.0 - - 10 - - - -
30/06:00am 21.1 ESE 5 - 1015.1 - 0.0 - - 10 - - - -
30/05:30am 20.0 ESE 6 - 1015.0 - 0.0 - - 10 - - - -
30/05:00am 18.6 SE 4 - 1014.7 - 0.0 - - 10 - - - -
30/04:30am 17.0 ESE 4 - 1015.0 - 0.0 - - 10 - - - -
30/04:00am 18.6 SSE 4 - 1014.8 - 0.0 - - 10 - - - -
30/03:30am 19.0 S 4 - 1015.0 - 0.0 - - 10 - - - -
30/03:00am 19.1 SE 3 - 1015.0 - 0.0 - - 10 - - - -
30/02:58am 19.0 SE 3 - 1015.0 - 0.0 - - 10 - - - -
30/02:41am 21.0 S 5 - 1015.0 - 0.0 - - 5 - - - -
30/02:30am 20.0 SSE 5 - 1015.0 - 0.0 - - 10 - - - -
30/02:00am 20.3 SE 4 - 1015.3 - 0.0 - - 9 - - - -
30/01:30am 21.0 SE 4 - 1015.0 - 0.0 - - 10 - - - -
30/01:00am 21.1 SE 4 - 1015.6 - 0.0 - - 10 - - - -
30/12:30am 21.0 SE 4 - 1016.0 - 0.0 - - 10 - - - -
30/12:00am 21.2 ESE 4 - 1016.0 - 0.0 - - 10 - - - -
 
Date/Time
WST
Temp
°C
Wind Pressure Rain since
9am
mm
Weather Cloud Vis
km
Sea
Height
m
Swell
Dir  Spd
kts
Gust
kts
hPa Trend Height
m
Period
s
Dir
29/11:30pm 22.0 ESE 4 - 1016.0 - 0.0 - - 10 - - - -
29/11:00pm 22.4 ESE 5 - 1016.4 - 0.0 - - 8 - - - -
29/10:30pm 22.0 E 4 - 1016.0 - 0.0 - - 10 - - - -
29/10:00pm 22.8 E 4 - 1016.8 - 0.0 - - 10 - - - -
29/09:30pm 23.0 E 4 - 1017.0 - 0.0 - - 10 - - - -
29/09:00pm 23.9 E 4 - 1016.7 - 0.0 - - 8 - - - -
29/08:30pm 24.0 E 4 - 1016.0 - 0.0 - - 10 - - - -
29/08:00pm 24.4 ENE 4 - 1016.2 - 0.0 - - 10 - - - -
29/07:30pm 25.0 NE 4 - 1016.0 - 0.0 - - 10 - - - -
29/07:00pm 25.8 NE 4 - 1015.3 - 0.0 - - 10 - - - -
29/06:30pm 26.0 NE 4 - 1015.0 - 0.0 - - 10 - - - -
29/06:00pm 26.6 NE 4 - 1014.5 - 0.0 - - 10 - - - -
29/05:30pm 28.0 NE 5 - 1014.0 - 0.0 - - 10 - - - -
29/05:00pm 28.6 NE 6 - 1013.9 - 0.0 - - 10 - - - -
29/04:30pm 30.0 ENE 7 - 1013.0 - 0.0 - - 10 - - - -
29/04:00pm 29.7 ENE 8 - 1013.3 - 0.0 - - 10 - - - -
29/03:30pm 30.0 E 8 - 1013.0 - 0.0 - - 10 - - - -
29/03:00pm 30.4 ENE 10 - 1012.6 - 0.0 - - 10 - - - -
29/02:30pm 30.0 ENE 10 - 1013.0 - 0.0 - - 10 - - - -
29/02:00pm 30.5 E 11 - 1012.6 - 0.0 - - 10 - - - -
29/01:30pm 30.0 E 9 - 1013.0 - 0.0 - - 10 - - - -
29/01:00pm 30.8 ENE 11 - 1013.1 - 0.0 - - 10 - - - -
29/12:30pm 30.0 ENE 13 - 1013.0 - 0.0 - - 10 - - - -
29/12:00pm 30.3 E 12 - 1013.9 - 0.0 - - 10 - - - -
29/11:30am 30.0 E 12 - 1014.0 - 0.0 - - 10 - - - -
29/11:00am 29.4 E 11 - 1015.3 - 0.0 - - 10 - - - -
29/10:30am 29.0 E 12 - 1016.0 - 0.0 - - 10 - - - -
29/10:00am 28.6 E 13 - 1016.1 - 0.0 - - 10 - - - -
29/09:30am 28.0 E 11 - 1016.0 - 0.0 - - 10 - - - -
29/09:00am 27.0 E 12 - 1016.3 - 0.0 - - 10 - - - -
29/08:30am 27.0 E 13 - 1016.0 - 0.0 - - 10 - - - -

Other Formats:

Comma delimited format used in spreadsheet applications
http://www.bom.gov.au/fwo/IDW60701/IDW60701.95101.axf

JavaScript Object Notation format (JSON) in row-major order
http://www.bom.gov.au/fwo/IDW60701/IDW60701.95101.json